Location: Glenbow
(51.1592°N, 114.3828°W)
Time: 19:33:02
(UTC+00:00)

Envisat - Pass Details

Date: 02 December 2021
Orbit: 764 x 766 km, 98.2° (Epoch: 26 January)

Event Time Altitude Azimuth Distance (km) Brightness Sun altitude
Rises 11:45:54 0° 22° (NNE) 3,247 6.6 -32.7°
Reaches altitude 10° 11:48:35 10° 35° (NE) 2,315 5.9 -32.3°
Maximum altitude 11:52:52 27° 92° (E) 1,462 5.0 -31.6°
Drops below altitude 10° 11:57:06 10° 149° (SSE) 2,300 5.7 -31.0°
Sets 11:59:45 0° 162° (SSE) 3,220 6.4 -30.5°
